This demonstration page uses our WeatherBlox Daily Observations layout. Learn more.

Left ArrowRight Arrow

Hourly Observations for September 16, 2020

Temp ( °F °C ) Dew Point ( °F °C ) Humidity (%) Winds ( mph kmh ) Pressure ( in mb ) Visibility ( mi km ) Precip ( " mm )
12:59 am 00:59 Mostly Cloudy 68 20 54 12.2 61 61 ENE 8 13 30.25 1024 10 16 0.00 0.00
1:59 am 01:59 Mostly Cloudy 66 18.9 54 12.2 65 65 ENE 6 9 30.24 1024 10 16 0.00 0.00
2:59 am 02:59 Mostly Cloudy 62 16.7 54 12.2 75 75 Calm 30.23 1024 10 16 0.00 0.00
3:59 am 03:59 Mostly Cloudy 59 15 54 12.2 83 83 Calm 30.22 1023 10 16 0.00 0.00
4:59 am 04:59 Mostly Cloudy 59 15 55 12.8 87 87 Calm 30.21 1023 10 16 0.00 0.00
5:59 am 05:59 Mostly Cloudy 61 16.1 56 13.3 84 84 Calm 30.20 1023 10 16 0.00 0.00
6:59 am 06:59 Mostly Cloudy 63 17.2 58 14.4 84 84 Calm 30.22 1023 10 16 0.00 0.00
7:59 am 07:59 Partly Cloudy 69 20.6 59 15 70 70 NE 6 9 30.22 1024 10 16 0.00 0.00
8:59 am 08:59 Mostly Cloudy 71 21.7 60 15.6 68 68 NE 9 15 30.22 1023 10 16 0.00 0.00
9:59 am 09:59 Mostly Cloudy 72 22.2 61 16.1 68 68 NE 9 15 30.23 1024 10 16 0.00 0.00
10:59 am 10:59 Mostly Cloudy 73 22.8 63 17.2 71 71 NE 9 15 30.23 1024 10 16 0.00 0.00
11:59 am 11:59 Mostly Cloudy 75 23.9 64 17.8 69 69 ENE 8 13 30.21 1023 10 16 0.00 0.00
12:59 pm 12:59 Mostly Cloudy 76 24.4 63 17.2 64 64 E 9 15 30.19 1022 10 16 0.00 0.00
1:59 pm 13:59 Mostly Cloudy 77 25 63 17.2 62 62 E 8 13 30.18 1022 10 16 0.00 0.00
2:59 pm 14:59 Cloudy 77 25 63 17.2 62 62 E 10 17 30.16 1021 10 16 0.00 0.00
3:59 pm 15:59 Cloudy 76 24.4 63 17.2 64 64 E 9 15 30.14 1021 10 16 0.00 0.00
4:59 pm 16:59 Cloudy 76 24.4 64 17.8 67 67 ESE 9 15 30.14 1021 10 16 0.00 0.00
5:59 pm 17:59 Cloudy 75 23.9 64 17.8 69 69 ESE 10 17 30.13 1020 10 16 0.00 0.00
6:59 pm 18:59 Mostly Cloudy 73 22.8 64 17.8 74 74 ESE 6 9 30.13 1020 10 16 0.00 0.00
7:59 pm 19:59 Mostly Cloudy 69 20.6 64 17.8 84 84 Calm 30.13 1020 10 16 0.00 0.00
8:59 pm 20:59 Mostly Cloudy 69 20.6 64 17.8 84 84 ESE 5 7 30.14 1021 10 16 0.00 0.00
9:59 pm 21:59 Cloudy 70 21.1 65 18.3 84 84 SE 6 9 30.13 1020 10 16 0.00 0.00
10:59 pm 22:59 Cloudy 70 21.1 65 18.3 84 84 SE 3 6 30.13 1020 10 16 0.00 0.00
11:59 pm 23:59 Cloudy 68 20 64 17.8 87 87 Calm 30.12 1020 10 16 0.00 0.00

Powered by AerisWeather